EW2485 Weather Reports


Display with metric or nautical units.
time (UTC)temp
F
wind
direction
speed
MPH
gust
MPH
rain 1hr
in
rain 24hr
in
rain mn
in
humidity
%
barometer
mb
20260905011555 65 1 2.0 4.0 0.00 0.97 0.00 90 1012.9
20260905010013 65 1 2.0 3.0 0.00 0.97 0.00 89 1012.6
20260905004542 66 1 2.0 5.0 0.00 0.97 0.00 89 1012.6
20260905003050 66 25 2.0 6.0 0.00 0.97 0.00 89 1012.6
20260905001516 67 8 4.0 7.0 0.00 0.97 0.00 89 1012.5
20260905000035 67 1 3.0 7.0 0.00 0.97 0.00 89 1012.3
20260904234507 68 15 3.0 6.0 0.00 0.97 0.00 88 1012.1
20260904233052 68 8 2.0 5.0 0.00 0.97 0.00 88 1012.3
20260904231533 69 1 2.0 5.0 0.00 0.97 0.00 87 1012.2
20260904224527 70 324 3.0 6.0 0.00 0.97 0.00 84 1012.0
20260904223051 71 331 2.0 6.0 0.00 0.97 0.00 81 1011.7
20260904221521 72 321 4.0 11.0 0.00 0.97 0.00 81 1011.8
20260904220044 72 329 4.0 9.0 0.00 0.97 0.00 80 1011.6
20260904214509 72 329 4.0 10.0 0.00 0.97 0.00 79 1011.6
20260904213041 72 6 6.0 13.0 0.00 0.97 0.00 79 1011.7
20260904211504 73 330 6.0 15.0 0.00 0.97 0.00 77 1011.8
20260904210032 74 291 5.0 19.0 0.00 0.97 0.00 77 1011.7
20260904204519 74 346 5.0 13.0 0.00 0.97 0.00 77 1012.0
20260904203053 74 335 12.0 22.0 0.00 0.97 0.00 75 1012.0
20260904201538 76 243 9.0 18.0 0.00 0.97 0.00 74 1012.1
20260904200009 76 310 4.0 14.0 0.00 0.97 0.00 75 1012.4
20260904194537 75 321 7.0 16.0 0.00 0.97 0.00 75 1012.5
20260904193057 75 159 7.0 14.0 0.00 0.97 0.00 76 1012.6
20260904191526 75 264 8.0 19.0 0.00 0.97 0.00 72 1012.7
20260904190048 76 352 8.0 18.0 0.00 0.97 0.00 74 1012.8
20260904184520 76 329 7.0 15.0 0.00 0.97 0.00 75 1012.9
20260904183037 75 269 4.0 14.0 0.00 0.97 0.00 76 1013.0
20260904181610 75 253 7.0 14.0 0.00 0.97 0.00 76 1013.1
20260904180034 75 308 6.0 15.0 0.00 0.97 0.00 77 1013.1
20260904174558 74 11 2.0 12.0 0.00 0.97 0.00 83 1013.2
20260904174502 74 223 3.0 12.0 0.00 0.97 0.00 83 1013.3
20260904173050 73 262 6.0 13.0 0.00 0.97 0.00 79 1013.6
20260904171607 74 310 5.0 16.0 0.00 0.97 0.00 80 1013.5
20260904170005 73 46 4.0 18.0 0.00 0.97 0.00 83 1013.4
20260904164532 73 233 5.0 12.0 0.00 0.97 0.00 84 1013.5
20260904163056 72 316 5.0 19.0 0.00 0.97 0.00 85 1013.8
20260904161523 72 328 7.0 14.0 0.00 0.97 0.00 83 1013.6
20260904160051 72 281 5.0 15.0 0.00 0.97 0.00 85 1013.6
20260904154533 71 293 7.0 14.0 0.00 0.97 0.00 87 1013.6
20260904153053 71 336 4.0 10.0 0.00 0.97 0.00 88 1013.4
20260904151511 71 20 5.0 9.0 0.00 0.97 0.00 89 1013.6
20260904150039 69 310 3.0 11.0 0.00 0.97 0.00 89 1013.8
20260904144525 69 348 9.0 13.0 0.00 0.97 0.00 89 1013.6
20260904143101 68 308 4.0 13.0 0.00 0.97 0.00 90 1013.6
20260904143010 68 25 4.0 13.0 0.00 0.97 0.00 90 1013.6
20260904141544 68 315 4.0 9.0 0.00 0.97 0.00 89 1013.6
20260904140015 67 1 3.0 10.0 0.00 0.97 0.00 91 1013.6
20260904134545 67 259 4.0 15.0 0.00 0.97 0.00 91 1013.9
20260904133101 66 330 6.0 14.0 0.00 0.97 0.00 91 1013.8
20260904131514 66 331 2.0 7.0 0.00 0.97 0.00 92 1013.6
20260904130039 65 210 5.0 12.0 0.00 0.97 0.00 91 1013.7
20260904124605 65 324 6.0 12.0 0.00 0.97 0.00 92 1013.6
20260904124502 65 327 5.0 12.0 0.00 0.97 0.00 92 1013.7
20260904123030 66 312 5.0 15.0 0.00 0.97 0.00 91 1013.7
20260904121554 65 336 4.0 9.0 0.00 0.97 0.00 92 1013.6
20260904120026 66 314 1.0 4.0 0.00 0.97 0.00 93 1013.5
20260904114551 66 108 1.0 4.0 0.00 0.97 0.00 94 1013.3
20260904113018 65 89 1.0 5.0 0.00 0.97 0.00 94 1013.3
20260904111538 64 117 1.0 10.0 0.00 0.97 0.00 94 1013.2
20260904110059 65 302 2.0 10.0 0.00 0.97 0.00 94 1013.3
20260904110011 65 321 2.0 10.0 0.00 0.97 0.00 94 1013.2
20260904104605 65 354 2.0 7.0 0.00 0.97 0.00 94 1013.1
20260904103023 65 223 2.0 7.0 0.00 0.97 0.00 94 1013.1
20260904101550 65 317 2.0 8.0 0.00 0.97 0.00 94 1012.8
20260904100009 66 298 3.0 8.0 0.00 0.97 0.00 94 1012.8
20260904094545 66 152 1.0 4.0 0.00 0.97 0.00 94 1012.8
20260904093049 66 336 4.0 7.0 0.00 0.97 0.00 95 1012.7
20260904091508 66 314 3.0 7.0 0.00 0.97 0.00 94 1012.7
20260904090028 66 206 1.0 5.0 0.00 0.97 0.00 95 1012.6
20260904084546 66 352 2.0 7.0 0.00 0.97 0.00 95 1012.5
20260904083005 66 269 0.0 2.0 0.00 0.97 0.00 95 1012.2
20260904081527 66 241 1.0 3.0 0.00 0.97 0.00 95 1012.0
20260904080118 66 206 0.0 2.0 0.00 0.98 0.00 95 1011.7
20260904074549 66 89 0.0 3.0 0.00 0.98 0.00 95 1011.6
20260904073032 66 269 0.0 3.0 0.00 0.98 0.00 95 1011.5
20260904071553 66 241 0.0 3.0 0.00 0.98 0.00 95 1011.4
20260904070036 66 178 0.0 2.0 0.00 0.98 0.00 95 1011.5
20260904064541 67 314 0.0 3.0 0.00 0.98 0.00 95 1011.7
20260904063003 67 241 0.0 3.0 0.00 0.98 0.00 94 1011.7
20260904061532 67 63 1.0 3.0 0.00 0.98 0.00 95 1011.7
20260904060118 67 11 1.0 3.0 0.00 0.98 0.00 95 1011.9
20260904054525 67 1 2.0 6.0 0.00 0.98 0.00 95 1012.1
20260904053139 67 35 2.0 4.0 0.00 0.98 0.00 95 1012.2
20260904051510 67 269 1.0 4.0 0.00 0.98 0.00 94 1012.2
20260904050042 67 46 0.0 2.0 0.01 1.03 0.00 94 1012.2
20260904044529 67 178 1.0 2.0 0.20 1.03 0.00 94 1012.3
20260904043010 68 28 1.0 4.0 0.79 1.03 0.00 93 1012.4
20260904041540 68 46 3.0 7.0 0.92 1.03 0.00 93 1012.4
20260904040056 69 20 5.0 16.0 0.93 1.21 1.02 93 1012.6
20260904034516 70 35 4.0 8.0 0.71 0.99 0.82 94 1012.4
20260904033100 70 216 2.0 6.0 0.16 0.44 0.28 94 1012.7
20260904031534 70 117 1.0 4.0 0.02 0.30 0.11 94 1011.8
20260904030016 70 197 1.0 3.0 0.00 0.40 0.09 94 1011.9
20260904024610 70 28 1.0 3.0 0.00 0.40 0.09 94 1011.9
20260904023024 70 89 1.0 5.0 0.01 0.40 0.09 94 1012.0
20260904021547 70 46 2.0 4.0 0.03 0.40 0.09 93 1012.1
20260904020012 71 15 4.0 7.0 0.03 0.99 0.09 93 1012.3
20260904014536 71 28 3.0 6.0 0.03 0.99 0.09 93 1012.4
20260904013054 71 13 2.0 5.0 0.02 0.98 0.08 93 1012.5